IZ3ZOD-13 Weather Reports


time (UTC)temp
C
wind
direction
speed
KPH
gust
KPH
rain 1hr
cm
rain 24hr
cm
rain mn
cm
humidity
%
barometer
mb
20260503022003 10 0 0.0 0.0 0.00 0.00 0.00 77 1019.4
20260503021814 10 0 0.0 0.0 0.00 0.00 0.00 76 1019.4
20260503021413 10 0 0.0 0.0 0.00 0.00 0.00 76 1019.3
20260503020803 10 0 0.0 0.0 0.00 0.00 0.00 76 1019.5
20260503020403 10 0 0.0 0.0 0.00 0.00 0.00 75 1019.5
20260503020217 10 0 0.0 0.0 0.00 0.00 0.00 75 1019.6
20260503015603 10 0 0.0 0.0 0.00 0.00 0.00 74 1019.4
20260503015203 10 0 0.0 0.0 0.00 0.00 0.00 74 1019.5
20260503014803 10 0 0.0 0.0 0.00 0.00 0.00 74 1019.6
20260503014403 10 0 0.0 0.0 0.00 0.00 0.00 73 1019.4
20260503014003 11 0 0.0 0.0 0.00 0.00 0.00 73 1019.5
20260503013603 11 0 0.0 0.0 0.00 0.00 0.00 72 1019.5
20260503013203 11 0 0.0 0.0 0.00 0.00 0.00 71 1019.4
20260503012803 11 0 0.0 0.0 0.00 0.00 0.00 71 1019.6
20260503012403 11 0 0.0 0.0 0.00 0.00 0.00 71 1019.6
20260503012003 11 0 0.0 0.0 0.00 0.00 0.00 72 1019.6
20260503011603 10 0 0.0 0.0 0.00 0.00 0.00 74 1019.6
20260503011203 10 0 0.0 0.0 0.00 0.00 0.00 73 1019.7
20260503010803 10 0 0.0 0.0 0.00 0.00 0.00 74 1019.6
20260503010613 10 0 0.0 0.0 0.00 0.00 0.00 74 1019.6
20260503010217 11 0 0.0 0.0 0.00 0.00 0.00 72 1019.7
20260503005603 11 0 0.0 0.0 0.00 0.00 0.00 70 1019.6
20260503005203 11 7 0.0 1.6 0.00 0.00 0.00 70 1019.6
20260503005015 11 7 0.0 1.6 0.00 0.00 0.00 70 1019.6
20260503004615 11 7 1.6 1.6 0.00 0.00 0.00 70 1019.6
20260503004003 12 13 1.6 3.2 0.00 0.00 0.00 68 1019.6
20260503003603 12 25 1.6 3.2 0.00 0.00 0.00 68 1019.6
20260503003203 11 43 1.6 3.2 0.00 0.00 0.00 69 1019.7
20260503002803 12 161 1.6 3.2 0.00 0.00 0.00 69 1019.8
20260503002403 12 190 0.0 1.6 0.00 0.00 0.00 66 1019.6
20260503002003 12 190 0.0 1.6 0.00 0.00 0.00 65 1019.7
20260503001603 12 0 0.0 0.0 0.00 0.00 0.00 65 1020.0
20260503001203 13 0 0.0 0.0 0.00 0.00 0.00 63 1019.9
20260503000803 13 0 0.0 0.0 0.00 0.00 0.00 62 1019.8
20260503000613 13 0 0.0 0.0 0.00 0.00 0.00 62 1019.8
20260503000213 13 0 0.0 0.0 0.00 0.00 0.00 62 1020.0
20260502235603 13 0 0.0 0.0 0.00 0.00 0.00 63 1020.0
20260502235203 13 0 0.0 0.0 0.00 0.00 0.00 63 1020.2
20260502234803 13 0 0.0 0.0 0.00 0.00 0.00 63 1020.0
20260502234403 13 0 0.0 0.0 0.00 0.00 0.00 63 1020.2
20260502234003 13 0 0.0 0.0 0.00 0.00 0.00 62 1020.2
20260502233603 13 190 0.0 1.6 0.00 0.00 0.00 61 1020.1
20260502233203 14 190 1.6 3.2 0.00 0.00 0.00 60 1020.2
20260502232803 14 192 1.6 3.2 0.00 0.00 0.00 58 1020.2
20260502232403 15 197 3.2 3.2 0.00 0.00 0.00 56 1020.3
20260502232003 15 201 3.2 6.4 0.00 0.00 0.00 55 1020.3
20260502231603 15 203 3.2 6.4 0.00 0.00 0.00 55 1020.5
20260502231203 15 204 4.8 6.4 0.00 0.00 0.00 54 1020.4
20260502230803 15 208 3.2 4.8 0.00 0.00 0.00 54 1020.5
20260502230403 15 210 3.2 4.8 0.00 0.00 0.00 54 1020.3
20260502230004 15 209 3.2 4.8 0.00 0.00 0.00 55 1020.4
20260502225603 15 208 3.2 4.8 0.00 0.00 0.00 54 1020.3
20260502225203 15 205 3.2 4.8 0.00 0.00 0.00 54 1020.3
20260502224803 15 202 3.2 4.8 0.00 0.00 0.00 54 1020.3
20260502224403 16 201 3.2 4.8 0.00 0.00 0.00 53 1020.5
20260502224003 16 204 3.2 6.4 0.00 0.00 0.00 53 1020.5
20260502223603 16 208 3.2 6.4 0.00 0.00 0.00 53 1020.4
20260502223203 16 211 4.8 6.4 0.00 0.00 0.00 52 1020.5
20260502222803 16 209 4.8 6.4 0.00 0.00 0.00 52 1020.3
20260502222613 16 205 3.2 6.4 0.00 0.00 0.00 53 1020.6
20260502222003 15 195 1.6 4.8 0.00 0.00 0.00 55 1020.4
20260502221817 15 194 1.6 3.2 0.00 0.00 0.00 56 1020.6
20260502221203 15 193 1.6 3.2 0.00 0.00 0.00 56 1020.6
20260502220803 15 193 1.6 3.2 0.00 0.00 0.00 56 1020.7
20260502220403 15 193 1.6 3.2 0.00 0.00 0.00 57 1020.5
20260502220004 15 193 1.6 3.2 0.00 0.00 0.00 57 1020.7
20260502215603 15 193 1.6 3.2 0.00 0.00 0.00 56 1020.6
20260502215203 15 196 3.2 3.2 0.00 0.00 0.00 55 1020.6
20260502215012 15 197 3.2 3.2 0.00 0.00 0.00 55 1020.6
20260502214617 15 201 3.2 4.8 0.00 0.00 0.00 54 1020.5
20260502214216 16 201 3.2 4.8 0.00 0.00 0.00 54 1020.7
20260502213815 16 204 3.2 4.8 0.00 0.00 0.00 54 1020.6
20260502213203 16 214 3.2 4.8 0.00 0.00 0.00 54 1020.5
20260502212803 16 203 3.2 4.8 0.00 0.00 0.00 54 1020.7
20260502212403 15 202 1.6 3.2 0.00 0.00 0.00 55 1020.6
20260502212004 15 215 1.6 3.2 0.00 0.00 0.00 55 1020.6
20260502211603 16 223 1.6 3.2 0.00 0.00 0.00 54 1020.7
20260502211203 16 223 0.0 1.6 0.00 0.00 0.00 53 1020.7
20260502210803 16 223 1.6 3.2 0.00 0.00 0.00 52 1020.5
20260502210615 16 223 1.6 3.2 0.00 0.00 0.00 52 1020.7
20260502210003 16 223 1.6 3.2 0.00 0.00 0.00 52 1020.7
20260502205603 16 223 1.6 3.2 0.00 0.00 0.00 52 1020.6
20260502205203 16 223 0.0 3.2 0.00 0.00 0.00 52 1020.7
20260502204803 16 0 0.0 0.0 0.00 0.00 0.00 53 1020.8
20260502204403 16 0 0.0 0.0 0.00 0.00 0.00 53 1020.8
20260502204003 16 0 0.0 0.0 0.00 0.00 0.00 53 1020.8
20260502203603 16 0 0.0 0.0 0.00 0.00 0.00 53 1020.7
20260502203203 16 0 0.0 0.0 0.00 0.00 0.00 53 1020.7
20260502202803 16 223 0.0 1.6 0.00 0.00 0.00 53 1020.8
20260502202403 16 223 1.6 3.2 0.00 0.00 0.00 53 1020.8
20260502202003 16 223 1.6 3.2 0.00 0.00 0.00 53 1020.8
20260502201603 16 223 0.0 3.2 0.00 0.00 0.00 52 1020.7
20260502201417 16 0 0.0 0.0 0.00 0.00 0.00 52 1020.9
20260502201017 17 0 0.0 0.0 0.00 0.00 0.00 51 1020.8
20260502200403 17 0 0.0 0.0 0.00 0.00 0.00 51 1020.8
20260502200215 17 0 0.0 0.0 0.00 0.00 0.00 50 1020.8
20260502195815 17 223 0.0 1.6 0.00 0.00 0.00 49 1020.9
20260502195203 17 223 1.6 3.2 0.00 0.00 0.00 49 1020.8
20260502194803 18 225 1.6 3.2 0.00 0.00 0.00 49 1020.8
20260502194613 18 225 1.6 3.2 0.00 0.00 0.00 48 1020.7
20260502194217 18 225 1.6 3.2 0.00 0.00 0.00 48 1020.7
20260502193603 18 224 1.6 4.8 0.00 0.00 0.00 48 1020.8
20260502193203 18 224 1.6 4.8 0.00 0.00 0.00 47 1020.7
20260502193015 18 224 1.6 3.2 0.00 0.00 0.00 47 1020.8
20260502192403 18 223 1.6 3.2 0.00 0.00 0.00 47 1020.8
20260502192003 18 221 3.2 4.8 0.00 0.00 0.00 47 1020.7
20260502191603 18 218 1.6 4.8 0.00 0.00 0.00 47 1020.7
20260502191203 18 218 3.2 4.8 0.00 0.00 0.00 46 1020.6
20260502190803 18 212 3.2 3.2 0.00 0.00 0.00 46 1020.6
20260502190403 19 207 3.2 4.8 0.00 0.00 0.00 46 1020.6
20260502190216 19 205 3.2 4.8 0.00 0.00 0.00 45 1020.7
20260502185603 19 205 3.2 6.4 0.00 0.00 0.00 45 1020.6
20260502185203 19 205 3.2 6.4 0.00 0.00 0.00 44 1020.6
20260502184803 19 202 3.2 4.8 0.00 0.00 0.00 45 1020.6
20260502184403 19 201 3.2 4.8 0.00 0.00 0.00 45 1020.5
20260502184003 20 200 3.2 4.8 0.00 0.00 0.00 44 1020.5
20260502183603 20 204 3.2 4.8 0.00 0.00 0.00 43 1020.7
20260502183203 20 208 4.8 6.4 0.00 0.00 0.00 43 1020.5
20260502182403 20 206 4.8 6.4 0.00 0.00 0.00 43 1020.6
20260502182215 20 205 4.8 6.4 0.00 0.00 0.00 43 1020.5
20260502181814 20 207 4.8 6.4 0.00 0.00 0.00 43 1020.4
20260502181203 21 208 4.8 4.8 0.00 0.00 0.00 42 1020.7
20260502180803 21 209 4.8 6.4 0.00 0.00 0.00 41 1020.5
20260502180403 21 207 4.8 6.4 0.00 0.00 0.00 41 1020.4
20260502180217 21 206 4.8 9.7 0.00 0.00 0.00 41 1020.5
20260502170403 23 247 6.4 14.5 0.00 0.00 0.00 36 1020.5
20260502164003 23 207 6.4 11.3 0.00 0.00 0.00 34 1020.7
20260502163603 23 199 8.0 14.5 0.00 0.00 0.00 35 1020.8
20260502163203 23 200 8.0 14.5 0.00 0.00 0.00 34 1020.7
20260502163017 23 201 8.0 14.5 0.00 0.00 0.00 33 1020.7
20260502162403 23 210 8.0 12.9 0.00 0.00 0.00 34 1020.9
20260502162003 23 221 8.0 14.5 0.00 0.00 0.00 34 1020.9
20260502161603 23 233 6.4 14.5 0.00 0.00 0.00 34 1021.0
20260502161203 23 239 8.0 16.1 0.00 0.00 0.00 33 1020.8
20260502160803 23 239 6.4 16.1 0.00 0.00 0.00 34 1020.9
20260502160403 24 233 8.0 12.9 0.00 0.00 0.00 34 1021.0
20260502152003 24 233 8.0 20.9 0.00 0.00 0.00 33 1021.4
20260502151603 24 236 6.4 12.9 0.00 0.00 0.00 33 1021.5
20260502151203 24 213 6.4 9.7 0.00 0.00 0.00 34 1021.5
20260502150803 24 228 8.0 24.1 0.00 0.00 0.00 32 1021.5
20260502150614 24 231 9.7 24.1 0.00 0.00 0.00 33 1021.8
20260502150213 24 246 9.7 24.1 0.00 0.00 0.00 33 1021.6
20260502130615 24 196 6.4 14.5 0.00 0.00 0.00 32 1023.3
20260502123816 25 217 8.0 14.5 0.00 0.00 0.00 34 1023.3
20260502123203 24 184 4.8 14.5 0.00 0.00 0.00 32 1023.4
20260502122803 25 238 4.8 11.3 0.00 0.00 0.00 31 1023.5
20260502122403 23 241 6.4 14.5 0.00 0.00 0.00 32 1023.6
20260502122003 23 240 9.7 16.1 0.00 0.00 0.00 33 1023.7
20260502121603 23 224 9.7 16.1 0.00 0.00 0.00 34 1023.6
20260502121203 23 184 8.0 16.1 0.00 0.00 0.00 32 1023.6
20260502120803 23 161 8.0 16.1 0.00 0.00 0.00 34 1023.7
20260502120403 23 178 6.4 16.1 0.00 0.00 0.00 32 1023.8
20260502120215 23 202 8.0 16.1 0.00 0.00 0.00 32 1023.9
20260502115603 23 234 9.7 20.9 0.00 0.00 0.00 33 1023.7
20260502115203 23 209 11.3 20.9 0.00 0.00 0.00 32 1024.1
20260502114803 23 209 9.7 20.9 0.00 0.00 0.00 33 1023.9
20260502114403 23 233 9.7 17.7 0.00 0.00 0.00 32 1024.1
20260502114003 23 237 9.7 17.7 0.00 0.00 0.00 33 1024.1
20260502113603 23 229 8.0 17.7 0.00 0.00 0.00 32 1024.1
20260502113203 23 224 6.4 14.5 0.00 0.00 0.00 32 1024.2
20260502112803 23 180 6.4 14.5 0.00 0.00 0.00 32 1024.4
20260502112403 23 159 8.0 14.5 0.00 0.00 0.00 33 1024.2
20260502112003 23 174 9.7 17.7 0.00 0.00 0.00 34 1024.2
20260502111813 23 192 9.7 17.7 0.00 0.00 0.00 33 1024.4
20260502111203 23 239 9.7 16.1 0.00 0.00 0.00 34 1024.3
20260502110803 23 230 8.0 16.1 0.00 0.00 0.00 32 1024.6
20260502110403 23 228 8.0 14.5 0.00 0.00 0.00 32 1024.6
20260502110216 23 232 8.0 16.1 0.00 0.00 0.00 34 1024.6
20260502105603 23 247 6.4 16.1 0.00 0.00 0.00 34 1024.6
20260502105203 24 248 4.8 14.5 0.00 0.00 0.00 31 1024.9
20260502104803 24 247 3.2 12.9 0.00 0.00 0.00 32 1024.8
20260502104403 23 246 4.8 12.9 0.00 0.00 0.00 34 1024.8
20260502104003 23 259 8.0 17.7 0.00 0.00 0.00 33 1025.1
20260502103603 23 256 8.0 17.7 0.00 0.00 0.00 34 1024.9
20260502103417 22 256 9.7 17.7 0.00 0.00 0.00 33 1024.8
20260502103016 22 257 6.4 16.1 0.00 0.00 0.00 34 1025.2
20260502102615 23 263 6.4 14.5 0.00 0.00 0.00 32 1024.9
20260502102003 22 223 8.0 17.7 0.00 0.00 0.00 36 1025.1
20260502101203 22 196 6.4 17.7 0.00 0.00 0.00 34 1025.2
20260502100803 22 196 6.4 14.5 0.00 0.00 0.00 34 1025.2
20260502100403 22 192 8.0 14.5 0.00 0.00 0.00 36 1025.2
20260502091203 22 209 3.2 9.7 0.00 0.00 0.00 36 1025.6
20260502091014 22 216 3.2 9.7 0.00 0.00 0.00 37 1025.9
20260502090613 22 242 3.2 9.7 0.00 0.00 0.00 35 1025.7
20260502071416 17 17 1.6 4.8 0.00 0.00 0.00 49 1026.4
20260502070803 17 3 3.2 6.4 0.00 0.00 0.00 51 1026.3
20260502070615 17 1 3.2 6.4 0.00 0.00 0.00 50 1026.3
20260502070214 16 5 3.2 9.7 0.00 0.00 0.00 51 1026.2
20260502065603 16 9 3.2 9.7 0.00 0.00 0.00 52 1026.2
20260502065413 16 6 3.2 6.4 0.00 0.00 0.00 53 1026.3
20260502064803 16 11 3.2 6.4 0.00 0.00 0.00 54 1026.3
20260502064403 16 5 3.2 4.8 0.00 0.00 0.00 54 1026.5
20260502064003 16 1 3.2 6.4 0.00 0.00 0.00 55 1026.4
20260502063603 16 354 1.6 6.4 0.00 0.00 0.00 53 1026.4
20260502063203 16 357 1.6 6.4 0.00 0.00 0.00 54 1026.4
20260502062803 15 352 1.6 4.8 0.00 0.00 0.00 54 1026.4
20260502062403 15 353 1.6 4.8 0.00 0.00 0.00 53 1026.5
20260502062003 15 349 1.6 3.2 0.00 0.00 0.00 52 1026.4
20260502061603 15 350 0.0 3.2 0.00 0.00 0.00 53 1026.3
20260502060803 15 330 0.0 3.2 0.00 0.00 0.00 53 1026.3
20260502060403 15 323 0.0 3.2 0.00 0.00 0.00 53 1026.2
20260502060003 15 308 0.0 3.2 0.00 0.00 0.00 53 1026.2
20260502055814 15 304 0.0 3.2 0.00 0.00 0.00 53 1026.3
20260502055413 15 0 0.0 0.0 0.00 0.00 0.00 55 1026.3
20260502055013 14 289 0.0 1.6 0.00 0.00 0.00 56 1026.2
20260502054403 13 289 0.0 1.6 0.00 0.00 0.00 57 1026.3
20260502054217 13 289 0.0 1.6 0.00 0.00 0.00 57 1026.2
20260502053603 13 283 0.0 1.6 0.00 0.00 0.00 57 1026.1
20260502053203 13 283 0.0 1.6 0.00 0.00 0.00 58 1026.2
20260502052803 12 281 0.0 3.2 0.00 0.00 0.00 59 1026.3
20260502052403 12 283 0.0 3.2 0.00 0.00 0.00 58 1026.2
20260502052003 12 287 0.0 3.2 0.00 0.00 0.00 59 1026.2
20260502051813 12 296 0.0 1.6 0.00 0.00 0.00 60 1026.2
20260502051203 12 0 0.0 0.0 0.00 0.00 0.00 60 1026.2
20260502050803 12 0 0.0 0.0 0.00 0.00 0.00 62 1026.0
20260502050403 11 306 0.0 1.6 0.00 0.00 0.00 63 1026.2
20260502050004 11 313 0.0 1.6 0.00 0.00 0.00 63 1026.2
20260502045815 11 314 0.0 1.6 0.00 0.00 0.00 64 1026.2
20260502045203 10 318 0.0 1.6 0.00 0.00 0.00 65 1026.1
20260502044803 10 317 0.0 1.6 0.00 0.00 0.00 67 1026.0
20260502044403 10 316 0.0 1.6 0.00 0.00 0.00 68 1025.9
20260502044003 10 277 0.0 1.6 0.00 0.00 0.00 69 1025.8
20260502043603 9 277 0.0 1.6 0.00 0.00 0.00 70 1025.8
20260502043203 8 277 0.0 1.6 0.00 0.00 0.00 71 1025.9
20260502042803 8 0 0.0 0.0 0.00 0.00 0.00 72 1026.0
20260502042403 8 0 0.0 0.0 0.00 0.00 0.00 72 1025.9
20260502042003 8 0 0.0 0.0 0.00 0.00 0.00 73 1025.9
20260502041603 8 0 0.0 0.0 0.00 0.00 0.00 72 1026.0
20260502041203 8 275 0.0 1.6 0.00 0.00 0.00 72 1026.0
20260502041017 8 274 0.0 1.6 0.00 0.00 0.00 72 1025.9
20260502040403 8 272 0.0 1.6 0.00 0.00 0.00 73 1026.0
20260502040003 8 274 1.6 3.2 0.00 0.00 0.00 74 1026.1
20260502035603 8 274 1.6 3.2 0.00 0.00 0.00 74 1025.9
20260502035203 7 279 0.0 3.2 0.00 0.00 0.00 76 1025.9
20260502034803 7 0 0.0 0.0 0.00 0.00 0.00 76 1025.8
20260502034403 7 0 0.0 0.0 0.00 0.00 0.00 75 1025.8
20260502034003 7 0 0.0 0.0 0.00 0.00 0.00 74 1026.1
20260502033817 7 0 0.0 0.0 0.00 0.00 0.00 74 1026.0
20260502033417 8 0 0.0 0.0 0.00 0.00 0.00 73 1025.9
20260502033016 8 0 0.0 0.0 0.00 0.00 0.00 73 1025.9
20260502032615 7 0 0.0 0.0 0.00 0.00 0.00 74 1025.9
20260502032003 7 0 0.0 0.0 0.00 0.00 0.00 74 1025.9
20260502031814 7 0 0.0 0.0 0.00 0.00 0.00 75 1026.0
20260502031203 7 0 0.0 0.0 0.00 0.00 0.00 77 1026.1
20260502030803 7 0 0.0 0.0 0.00 0.00 0.00 74 1026.1
20260502030617 7 0 0.0 0.0 0.00 0.00 0.00 74 1026.1
20260502030003 8 0 0.0 0.0 0.00 0.00 0.00 73 1025.9
20260502025603 8 0 0.0 0.0 0.00 0.00 0.00 73 1025.9
20260502025203 8 0 0.0 0.0 0.00 0.00 0.00 74 1026.0
20260502024803 7 0 0.0 0.0 0.00 0.00 0.00 74 1026.0
20260502024403 7 0 0.0 0.0 0.00 0.00 0.00 75 1026.1
20260502024003 7 0 0.0 0.0 0.00 0.00 0.00 74 1026.1
20260502023603 7 0 0.0 0.0 0.00 0.00 0.00 74 1026.1
20260502023203 7 0 0.0 0.0 0.00 0.00 0.00 74 1026.1
20260502022803 7 0 0.0 0.0 0.00 0.00 0.00 74 1026.0
20260502022616 7 0 0.0 0.0 0.00 0.00 0.00 74 1026.0